Flag for Brazil Weather past 2 weeks in Santarém, Para, Brazil

Now
73 °F

Passing clouds.


Feels Like: 68 °F
Forecast: 74 / 82 °F
Wind: 5 mph from South

Location: Santarem-Aeroporto

Current Time: Mar 6, 2015 at 9:24:54 PM

Latest Report: Mar 6, 2015 at 9:00 PM


Visibility: N/A

Pressure: 29.83 "Hg

Humidity: 100%

Dew point: 73 °F

Location of SantarémLocation

Historic Weather in Santarém — Graph

°F

Santarém temperature yesterday

Maximum temperature yesterday: 86 °F (at 12:00 PM)
Minimum temperature yesterday: 37 °F (at 4:00 AM)
Average temperature yesterday: 77 °F

Past Weeks' High & Low Weather Summary

 TemperatureHumidityPressure
High88 °F (Feb 25, 2:00 PM)100% (Feb 20, 8:00 PM)29.95 "Hg (Feb 20, 8:00 PM)
Low36 °F (Feb 28, 5:00 AM)62% (Feb 25, 2:00 PM)29.71 "Hg (Feb 26, 6:00 PM)
Average78 °F89%29.85 "Hg
* Reported Feb 19 8:00 PM — Mar 6 8:00 PM, Santarém, Weather by CustomWeather, © 2015

Note: Actual official high and low records may vary slightly from our data, if they occured in-between our weather recording intervals... More about our weather records

Advertising

Santarém weather history for previous 24 hours

 ConditionsComfort  
Time TempWeatherWind HumidityBarometerVisibility
8:00 PM
Fri, Mar 6
75 °FPassing clouds.No wind94%29.80 "HgN/A
7:00 PM77 °FPartly sunny.No wind94%29.80 "HgN/A
6:00 PM81 °FPartly sunny.2 mph84%29.80 "HgN/A
5:00 PM81 °FPartly sunny.No wind79%29.80 "HgN/A
4:00 PM81 °FBroken clouds.1 mph79%29.83 "HgN/A
3:00 PM81 °FBroken clouds.No wind84%29.86 "HgN/A
2:00 PM81 °FBroken clouds.2 mph84%29.89 "HgN/A
1:00 PM81 °FBroken clouds.3 mph84%29.89 "HgN/A
12:00 PM79 °FPartly sunny.9 mph84%29.92 "HgN/A
11:00 AM79 °FLight rain. Broken clouds.9 mph89%29.95 "HgN/A
10:00 AM75 °FLight rain. Broken clouds.9 mph94%29.95 "HgN/A
9:00 AM73 °FLight rain. More clouds than sun.12 mph100%29.92 "Hg3 mi
8:50 AM73 °FLight rain. More clouds than sun.9 mph94%29.92 "Hg3 mi
8:00 AM72 °FRain. Mostly cloudy.12 mph100%29.92 "Hg1 mi
7:00 AM73 °FRain. Mostly cloudy.15 mph100%29.89 "Hg1 mi
6:00 AM75 °FLight rain. Overcast.14 mph94%29.86 "Hg2 mi
5:00 AM79 °FRain. Partly cloudy.25 mph89%29.83 "Hg2 mi
4:00 AM77 °FPassing clouds.5 mph94%29.83 "HgN/A
3:00 AM79 °FPassing clouds.10 mph89%29.83 "HgN/A
2:00 AM79 °FPassing clouds.7 mph89%29.86 "HgN/A
1:00 AM79 °FPassing clouds.13 mph89%29.86 "HgN/A
12:00 AM77 °FPassing clouds.9 mph94%29.89 "HgN/A
11:00 PM
Thu, Mar 5
77 °FClear.3 mph94%29.86 "Hg10 mi
10:00 PM77 °FClear.6 mph94%29.86 "Hg10 mi
9:00 PM77 °FClear.5 mph94%29.83 "Hg10 mi
Weather by CustomWeather, © 2015

See weather overviewHow to use our weather pages